[[{"header":{"parameterUnit":"m.s-1","parameterCategory":1,"la1":30.2991,"la2":30.254,"lo1":-89.0895,"lo2":-89.0444,"dy":0.0017,"dx":0.0017,"nx":28,"ny":28,"refTime":"2024-08-14T09:00:00:Z","depth":0,"parameterNumber":2,"parameterNumberName":"U-component_of_WINDS"},"data":[0,0,0,0,0,0,0,0,0,0,0,0,0,0,0,0,0,0,0,0,0,0,0,0,0,0,0,0,0,0,0,0,0,0,0,0,0,0,0,0,0,0,0,0,0,0,0,0,0,0,0,0,0,0,0,0,0,0,1.051,1.051,0,1.0497,1.0497,1.0497,1.0478,1.0478,1.0478,1.0478,1.0464,1.0464,1.0464,0,0,0,0,0,0,0,0,0,0,0,0,0,1.0519,1.0519,1.051,1.051,1.0509,1.0497,1.0497,1.0497,1.0479,1.0478,1.0478,1.0477,1.0464,1.0464,1.0464,0,0,0,0,0,0,0,0,0,0,0,0,0,1.0512,1.0519,1.051,1.0499,1.0498,1.0497,1.0497,1.0497,1.0479,1.0478,1.0478,1.0477,1.0464,1.0464,1.0464,1.0473,0,0,1.0464,1.0464,0,0,0,0,0,0,0,0,1.0512,1.0511,1.0501,1.05,1.0498,1.0489,1.0495,1.0489,1.0479,1.0486,1.0478,1.0477,1.0473,1.0472,1.0471,1.0472,1.0472,1.0464,1.0464,1.0464,1.0464,0,0,0,0,0,0,0,1.0513,1.0512,1.0505,1.0501,1.0499,1.0495,1.0493,1.0494,1.0482,1.0485,1.0484,1.0483,1.0472,1.0471,1.047,1.0472,1.0464,1.0464,1.0464,1.0464,1.0482,1.0482,0,0,0,0,0,0,1.0515,1.0512,1.0505,1.0504,1.0504,1.0495,1.0493,1.0492,1.0482,1.048,1.0483,1.0482,1.0471,1.047,1.047,1.048,1.0464,1.0464,1.0464,1.0481,1.0482,1.0483,0,0,0,0,0,0,1.0515,1.0514,1.0506,1.0508,1.0507,1.0496,1.0495,1.0492,1.0491,1.048,1.0478,1.0484,1.0471,1.047,1.0473,1.0479,1.0464,1.0464,1.0481,1.0481,1.0482,1.05,0,0,0,0,0,0,1.0516,1.0515,1.0517,1.0508,1.0507,1.0508,1.0495,1.0492,1.0491,1.0489,1.0481,1.0479,1.047,1.0473,1.0473,1.0479,1.0464,1.048,1.0481,1.0482,1.0498,1.0501,1.0503,0,0,0,0,0,1.0516,1.0522,1.0517,1.0517,1.051,1.0509,1.0508,1.0498,1.0491,1.0494,1.0488,1.0479,1.0479,1.0473,1.0473,1.0479,1.048,1.0481,1.0482,1.0497,1.05,1.0503,0,0,0,0,0,0,1.0531,1.0521,1.0515,1.0519,1.0515,1.0506,1.0508,1.0501,1.0499,1.0497,1.0486,1.0484,1.0489,1.0484,1.0478,1.0488,1.0478,1.0479,1.049,1.0493,1.0495,1.0495,1.0464,0,0,0,0,0,1.0536,1.0535,1.0526,1.053,1.0529,1.0519,1.0518,1.0512,1.0507,1.0505,1.0499,1.0495,1.0494,1.0493,1.0492,1.0499,1.0497,1.0503,1.0505,1.0507,1.0508,1.0512,1.0514,1.0486,1.0486,1.0486,0,0,1.0543,1.0538,1.0538,1.0533,1.0529,1.053,1.0518,1.0518,1.0519,1.0505,1.0507,1.0503,1.0498,1.0503,1.0505,1.05,1.0516,1.0509,1.051,1.051,1.0513,1.0516,1.0518,1.0487,1.0487,1.0487,0,0,1.0558,1.0553,1.0557,1.0554,1.0548,1.0542,1.0543,1.0536,1.0532,1.0535,1.0525,1.0526,1.0524,1.0521,1.052,1.0536,1.0528,1.0536,1.0548,1.0552,1.0554,1.0556,1.0562,1.0564,1.0537,1.0538,1.0538,0,1.0568,1.0568,1.0559,1.0561,1.056,1.0549,1.0552,1.055,1.0544,1.0544,1.0538,1.0537,1.0533,1.0538,1.0542,1.0541,1.0542,1.0536,1.0555,1.0556,1.0558,1.0563,1.0565,1.0539,1.0538,1.0538,1.0538,0,1.0581,1.0581,1.0585,1.058,1.058,1.0582,1.0575,1.0575,1.057,1.0565,1.0568,1.0563,1.0561,1.0562,1.0556,1.0566,1.0563,1.0557,1.0546,1.0562,1.0566,1.0568,1.054,1.054,1.0539,1.0539,0,0,1.0601,1.0594,1.0596,1.0594,1.0589,1.0589,1.0593,1.0591,1.0592,1.0589,1.0592,1.0592,1.0586,1.0585,1.0579,1.0583,1.0596,1.0575,1.0575,1.0579,1.0607,1.0611,1.0614,1.0592,1.0592,1.0592,1.0608,0,1.0614,1.0618,1.0612,1.0618,1.0619,1.061,1.0613,1.061,1.0606,1.0607,1.0603,1.0603,1.0596,1.0595,1.0598,1.0594,1.0602,1.0593,1.0593,1.0594,1.0593,1.0616,1.062,1.0635,1.0609,1.061,1.061,0,1.0628,1.0627,1.0633,1.0629,1.063,1.0632,1.0631,1.0632,1.0629,1.0627,1.0626,1.062,1.0623,1.0615,1.062,1.0614,1.0615,1.0613,1.0613,1.0611,1.0601,1.0614,1.0639,1.0641,1.0613,1.0613,1.0612,0,1.0642,1.0643,1.0647,1.0646,1.0641,1.0643,1.0642,1.0639,1.0639,1.0639,1.0639,1.0639,1.0638,1.0639,1.0633,1.0628,1.0639,1.063,1.0637,1.0637,1.0638,1.0637,1.0661,1.064,1.064,1.064,1.064,0,1.0656,1.066,1.0653,1.0655,1.066,1.0654,1.0659,1.0656,1.0654,1.0656,1.0649,1.0651,1.0644,1.0646,1.0642,1.0647,1.0647,1.0645,1.0643,1.0645,1.0645,1.0643,1.0642,1.0641,1.0641,1.0641,1.0641,0,1.0671,1.0667,1.0671,1.0667,1.0666,1.067,1.0667,1.0669,1.0666,1.0669,1.0669,1.0664,1.0666,1.0661,1.0662,1.0659,1.0666,1.0664,1.0667,1.0666,1.0672,1.0671,1.0695,1.0698,1.0676,1.0676,1.0677,0,1.068,1.0683,1.068,1.0681,1.068,1.0682,1.0682,1.0677,1.0678,1.0676,1.0679,1.0681,1.0681,1.0685,1.0681,1.0683,1.0679,1.0688,1.0679,1.0681,1.0679,1.0678,1.0678,1.0689,1.0689,1.0689,1.069,0,1.0695,1.0693,1.0694,1.0695,1.0696,1.0696,1.0696,1.0697,1.0692,1.0693,1.0695,1.0696,1.0698,1.0699,1.07,1.0699,1.0693,1.0693,1.0694,1.0695,1.0696,1.0695,1.067,1.0692,1.0691,1.0691,1.0691,1.0691,1.0706,1.0709,1.0708,1.071,1.0709,1.071,1.0712,1.071,1.0711,1.0712,1.071,1.0713,1.0712,1.0713,1.0712,1.0715,1.0711,1.0713,1.0713,1.0714,1.0714,1.0697,1.0715,1.0715,1.0715,1.0715,1.0715,0,1.0721,1.072,1.0722,1.0722,1.0724,1.072,1.072,1.0722,1.0724,1.0724,1.0726,1.0729,1.0731,1.0729,1.0731,1.0733,1.0731,1.0734,1.0733,1.0733,1.0718,1.0716,1.0736,1.0736,1.0736,1.0736,1.0736,1.0736,1.0728,1.0733,1.0731,1.0736,1.0735,1.0738,1.0739,1.0739,1.0739,1.0743,1.0745,1.0744,1.0743,1.0745,1.0747,1.0747,1.0747,1.0751,1.075,1.0736,1.0733,1.0731,1.073,1.0752,1.0752,1.0764,1.0764,1.0764]},{"header":{"parameterUnit":"m.s-1","parameterCategory":1,"la1":30.2991,"la2":30.254,"lo1":-89.0895,"lo2":-89.0444,"dy":0.0017,"dx":0.0017,"nx":28,"ny":28,"refTime":"2024-08-14T09:00:00:Z","depth":0,"parameterNumber":3,"parameterNumberName":"V-component_of_WINDS"},"data":[0,0,0,0,0,0,0,0,0,0,0,0,0,0,0,0,0,0,0,0,0,0,0,0,0,0,0,0,0,0,0,0,0,0,0,0,0,0,0,0,0,0,0,0,0,0,0,0,0,0,0,0,0,0,0,0,0,0,2.3816,2.3818,0,2.3919,2.392,2.3921,2.3952,2.3952,2.3951,2.3951,2.4046,2.4049,2.4052,0,0,0,0,0,0,0,0,0,0,0,0,0,2.3637,2.364,2.3816,2.3818,2.3819,2.3919,2.392,2.3922,2.3952,2.3952,2.3951,2.3951,2.4045,2.4049,2.4052,0,0,0,0,0,0,0,0,0,0,0,0,0,2.3724,2.3641,2.3816,2.3847,2.385,2.3919,2.392,2.3922,2.3953,2.3952,2.3951,2.395,2.4044,2.4048,2.4053,2.4095,0,0,2.4067,2.4069,0,0,0,0,0,0,0,0,2.3719,2.3731,2.3841,2.3845,2.3849,2.3922,2.3892,2.398,2.3953,2.3913,2.3951,2.395,2.4005,2.4013,2.4033,2.41,2.4104,2.4067,2.407,2.4072,2.4073,0,0,0,0,0,0,0,2.3713,2.3727,2.3857,2.3842,2.3847,2.3852,2.3863,2.3909,2.3962,2.3917,2.3919,2.3932,2.4007,2.4029,2.4036,2.4105,2.4067,2.4071,2.4074,2.4075,2.4211,2.4212,0,0,0,0,0,0,2.3704,2.3721,2.3853,2.386,2.3781,2.3856,2.3869,2.3899,2.3961,2.397,2.3932,2.3933,2.4021,2.403,2.4039,2.4094,2.4072,2.4076,2.4078,2.421,2.4211,2.4212,0,0,0,0,0,0,2.37,2.3715,2.3849,2.3791,2.3809,2.386,2.3894,2.3902,2.3924,2.3973,2.3982,2.3945,2.4021,2.4033,2.4082,2.4097,2.4078,2.4082,2.4209,2.4211,2.4212,2.4203,0,0,0,0,0,0,2.3694,2.3713,2.3733,2.3792,2.3812,2.3893,2.3895,2.3904,2.3933,2.3934,2.3988,2.3996,2.4022,2.4075,2.4086,2.4103,2.4085,2.4208,2.421,2.4212,2.4202,2.4203,2.4205,0,0,0,0,0,2.3688,2.3724,2.3733,2.3749,2.3837,2.3894,2.3905,2.3937,2.3934,2.3952,2.3983,2.3994,2.4093,2.408,2.4093,2.4111,2.4207,2.4209,2.4211,2.4201,2.4203,2.4205,0,0,0,0,0,0,2.3661,2.3732,2.3744,2.38,2.3842,2.3899,2.3924,2.3938,2.3978,2.3978,2.4012,2.4024,2.407,2.4095,2.4079,2.4155,2.415,2.4155,2.4138,2.414,2.4142,2.4135,2.4089,0,0,0,0,0,2.3663,2.3706,2.3764,2.3808,2.3829,2.3872,2.3898,2.3919,2.3962,2.3978,2.4013,2.4052,2.4092,2.4117,2.4156,2.4205,2.4216,2.4224,2.4225,2.4226,2.423,2.4258,2.4262,2.4219,2.4219,2.4219,0,0,2.3664,2.3708,2.3733,2.3804,2.3838,2.388,2.3887,2.393,2.3961,2.3984,2.4034,2.406,2.4105,2.4154,2.4177,2.4176,2.4244,2.4229,2.4229,2.4233,2.426,2.4264,2.4268,2.4221,2.422,2.422,0,0,2.369,2.3728,2.377,2.3805,2.3858,2.3887,2.3897,2.3953,2.3973,2.4024,2.4042,2.4076,2.4145,2.4176,2.4201,2.4238,2.4249,2.4249,2.4258,2.4284,2.4288,2.4291,2.4304,2.4309,2.4253,2.4252,2.4252,0,2.3685,2.3753,2.3788,2.3832,2.3862,2.3888,2.3929,2.3959,2.4021,2.404,2.4038,2.4125,2.4156,2.4213,2.4223,2.4241,2.4252,2.4244,2.4285,2.4288,2.4292,2.4305,2.431,2.4252,2.4252,2.4252,2.4252,0,2.3744,2.379,2.3816,2.388,2.3912,2.3954,2.3993,2.4021,2.4038,2.4066,2.4117,2.4156,2.4204,2.4218,2.4234,2.4278,2.4276,2.4279,2.4275,2.4295,2.4308,2.4314,2.4252,2.4252,2.4252,2.4252,0,0,2.3757,2.3841,2.385,2.3879,2.3939,2.3974,2.4015,2.4065,2.4089,2.4129,2.4164,2.4221,2.4225,2.4253,2.4272,2.4295,2.4323,2.4296,2.4297,2.43,2.4372,2.4371,2.4377,2.433,2.4331,2.4332,2.4369,0,2.3792,2.3872,2.3905,2.3969,2.4011,2.4035,2.4071,2.411,2.4137,2.4174,2.4201,2.4242,2.4244,2.4261,2.4285,2.4314,2.4338,2.4312,2.4361,2.4362,2.4351,2.4383,2.4382,2.4416,2.4374,2.4375,2.4376,0,2.3843,2.3889,2.3958,2.4014,2.4032,2.4065,2.4114,2.4149,2.4193,2.421,2.4242,2.426,2.4302,2.4294,2.4351,2.4333,2.4354,2.4371,2.4373,2.438,2.4372,2.4392,2.4427,2.4432,2.4384,2.4384,2.4383,0,2.3848,2.3925,2.3977,2.4001,2.4067,2.4089,2.4116,2.416,2.4188,2.4229,2.4247,2.429,2.4315,2.4346,2.4375,2.4367,2.4429,2.4424,2.4444,2.4443,2.4457,2.4456,2.4497,2.4469,2.4468,2.4468,2.4468,0,2.3884,2.3925,2.398,2.4012,2.4058,2.4094,2.4137,2.4166,2.4204,2.424,2.4261,2.4293,2.4329,2.4364,2.4386,2.443,2.444,2.4454,2.446,2.4454,2.4452,2.4469,2.4468,2.447,2.4469,2.4469,2.4469,0,2.3897,2.3936,2.3994,2.4053,2.4068,2.4099,2.4148,2.4178,2.4205,2.425,2.4262,2.4304,2.4348,2.4379,2.4433,2.4448,2.4496,2.45,2.4482,2.4486,2.4504,2.4503,2.4559,2.4568,2.4532,2.4532,2.4532,0,2.3919,2.3952,2.4015,2.4042,2.4071,2.4114,2.4144,2.4178,2.4207,2.426,2.4283,2.4328,2.4367,2.4434,2.4468,2.4509,2.4516,2.4533,2.4522,2.4515,2.4518,2.4516,2.452,2.4535,2.4535,2.4535,2.4535,0,2.3953,2.3971,2.4015,2.4066,2.4102,2.4142,2.4182,2.4202,2.4243,2.4275,2.4321,2.4351,2.4409,2.4453,2.4498,2.4523,2.4536,2.4538,2.4545,2.454,2.4529,2.4536,2.4488,2.4537,2.4537,2.4537,2.4537,2.4537,2.3972,2.4003,2.4053,2.4101,2.4136,2.4173,2.4205,2.4237,2.4278,2.433,2.4347,2.4395,2.4435,2.4498,2.4523,2.4559,2.4558,2.4568,2.4571,2.4573,2.4574,2.4522,2.4567,2.4567,2.4567,2.4567,2.4567,0,2.4009,2.4043,2.4086,2.4145,2.4182,2.4193,2.4238,2.4267,2.4311,2.435,2.4388,2.444,2.4483,2.452,2.4564,2.4586,2.4593,2.4596,2.4596,2.4601,2.4571,2.4562,2.459,2.459,2.459,2.459,2.459,2.459,2.4033,2.4086,2.411,2.4179,2.4211,2.4261,2.4286,2.432,2.4351,2.4411,2.4448,2.4473,2.451,2.4557,2.4596,2.4605,2.4621,2.4623,2.4634,2.4606,2.4603,2.4601,2.4592,2.4626,2.4626,2.4661,2.4661,2.4662]}]]